Date String (YYYY-MM-DD hh:mm:ss) UTC,Instrument flags,Ambient pressure (hPa),Sample flow (lpm),Bypass flow (lpm),Sample temperature (°C),Ambient temperature (°C),ASC tube jacket temperature (°C),LED temperature (°C),Box temperature (°C),Sample RH (%),Span deviation,Mass concentration (μg/m³),Mass concentration (μg/m³),Mass concentration (μg/m³)
DateTimeUTC,F1_M11,P_M11,Q1_M11,Q2_M11,T1_M11,T2_M11,T3_M11,T4_M11,T5_M11,U1_M11,ZSPAN_M11,X0_M11,X2_M11,X1_M11
2022-10-16 08:00:00,,0833.5,5.00,0.00,30.5,29.0,00.0,39.3,32.2,15.4,0000.0,0008.35,0004.29,0003.83
2022-10-16 08:01:00,,0833.5,5.00,0.00,30.5,29.0,00.0,39.3,32.3,15.4,0000.0,0008.55,0004.31,0003.83
2022-10-16 08:02:00,,0833.4,5.00,0.00,30.5,29.0,00.0,39.3,32.3,15.3,0000.0,0008.57,0004.32,0003.84
2022-10-16 08:03:00,,0833.4,5.00,0.00,30.5,29.0,00.0,39.3,32.3,15.2,0000.0,0008.41,0004.28,0003.84
2022-10-16 08:04:00,,0833.4,5.00,0.00,30.5,29.0,00.0,39.3,32.2,15.1,0000.0,0008.32,0004.25,0003.82
2022-10-16 08:05:00,,0833.5,4.98,0.00,30.5,29.0,00.0,39.3,32.3,15.1,0000.0,0007.86,0004.26,0003.81
2022-10-16 08:06:00,,0833.4,5.00,0.00,30.5,29.0,00.0,39.3,32.3,15.2,0000.0,0007.82,0004.28,0003.81
2022-10-16 08:07:00,,0833.5,5.00,0.00,30.5,29.0,00.0,39.3,32.3,15.2,0000.0,0007.77,0004.26,0003.81
2022-10-16 08:08:00,,0833.5,5.00,0.00,30.5,29.0,00.0,39.3,32.2,15.2,0000.0,0007.63,0004.24,0003.80
2022-10-16 08:09:00,,0833.5,5.01,0.00,30.5,29.0,00.0,39.3,32.3,15.2,0000.0,0007.69,0004.22,0003.79
2022-10-16 08:10:00,,0833.4,4.99,0.00,30.5,29.0,00.0,39.3,32.3,15.2,0000.0,0007.63,0004.20,0003.78
2022-10-16 08:11:00,,0833.4,5.00,0.00,30.5,29.0,00.0,39.3,32.2,15.2,0000.0,0007.61,0004.20,0003.78
2022-10-16 08:12:00,,0833.5,4.99,0.00,30.5,29.0,00.0,39.3,32.2,15.3,0000.0,0007.42,0004.18,0003.77
2022-10-16 08:13:00,,0833.4,5.01,0.00,30.5,29.0,00.0,39.3,32.3,15.3,0000.0,0007.44,0004.17,0003.77
2022-10-16 08:14:00,,0833.4,4.98,0.00,30.5,29.0,00.0,39.3,32.3,15.3,0000.0,0007.27,0004.16,0003.78
2022-10-16 08:15:00,,0833.4,5.00,0.00,30.5,29.0,00.0,39.4,32.3,15.3,0000.0,0007.27,0004.18,0003.79
2022-10-16 08:16:00,,0833.4,5.00,0.00,30.5,29.0,00.0,39.4,32.3,15.3,0000.0,0007.36,0004.22,0003.79
2022-10-16 08:17:00,,0833.4,5.01,0.00,30.5,29.0,00.0,39.3,32.3,15.3,0000.0,0007.26,0004.24,0003.81
2022-10-16 08:18:00,,0833.4,5.00,0.00,30.5,29.0,00.0,39.3,32.3,15.3,0000.0,0007.38,0004.27,0003.81
2022-10-16 08:19:00,,0833.5,4.99,0.00,30.5,29.0,00.0,39.4,32.3,15.3,0000.0,0007.37,0004.29,0003.82
2022-10-16 08:20:00,,0833.4,5.00,0.00,30.5,29.0,00.0,39.4,32.3,15.3,0000.0,0007.39,0004.32,0003.83
2022-10-16 08:21:00,,0833.4,5.01,0.00,30.5,29.0,00.0,39.3,32.2,15.4,0000.0,0007.65,0004.34,0003.85
2022-10-16 08:22:00,,0833.4,5.00,0.00,30.5,29.0,00.0,39.3,32.3,15.4,0000.0,0007.66,0004.34,0003.86
2022-10-16 08:23:00,,0833.4,4.99,0.00,30.5,29.0,00.0,39.3,32.3,15.3,0000.0,0007.79,0004.32,0003.87
2022-10-16 08:24:00,,0833.4,5.00,0.00,30.5,29.0,00.0,39.3,32.2,15.2,0000.0,0008.23,0004.33,0003.86
2022-10-16 08:25:00,,0833.4,5.01,0.00,30.5,29.0,00.0,39.3,32.2,15.3,0000.0,0008.72,0004.36,0003.85
2022-10-16 08:26:00,,0833.4,4.99,0.00,30.5,29.0,00.0,39.3,32.2,15.3,0000.0,0008.88,0004.39,0003.85
2022-10-16 08:27:00,,0833.4,5.00,0.00,30.5,29.0,00.0,39.4,32.3,15.3,0000.0,0009.27,0004.36,0003.85
2022-10-16 08:28:00,,0833.5,5.01,0.00,30.5,29.0,00.0,39.4,32.3,15.3,0000.0,0009.51,0004.35,0003.85
2022-10-16 08:29:00,,0833.5,5.00,0.00,30.5,29.0,00.0,39.4,32.2,15.4,0000.0,0009.74,0004.37,0003.85
2022-10-16 08:30:00,,0833.5,5.00,0.00,30.5,29.0,00.0,39.4,32.3,15.4,0000.0,0009.80,0004.36,0003.84
2022-10-16 08:31:00,,0833.5,5.00,0.00,30.5,29.1,00.0,39.4,32.3,15.3,0000.0,0011.03,0004.37,0003.84
2022-10-16 08:32:00,,0833.5,5.00,0.00,30.5,29.1,00.0,39.4,32.3,15.4,0000.0,0011.07,0004.36,0003.83
2022-10-16 08:33:00,,0833.6,5.00,0.00,30.5,29.0,00.0,39.4,32.3,15.4,0000.0,0011.21,0004.39,0003.83
2022-10-16 08:34:00,,0833.6,5.00,0.00,30.5,29.0,00.0,39.4,32.2,15.4,0000.0,0011.14,0004.44,0003.83
2022-10-16 08:35:00,,0833.6,5.00,0.00,30.5,29.0,00.0,39.4,32.3,15.4,0000.0,0010.79,0004.44,0003.83
2022-10-16 08:36:00,,0833.5,5.00,0.00,30.5,29.0,00.0,39.4,32.3,15.4,0000.0,0010.49,0004.44,0003.84
2022-10-16 08:37:00,,0833.5,4.99,0.00,30.5,29.0,00.0,39.4,32.3,15.4,0000.0,0010.65,0004.43,0003.84
2022-10-16 08:38:00,,0833.5,5.00,0.00,30.5,29.0,00.0,39.4,32.3,15.2,0000.0,0010.96,0004.46,0003.85
2022-10-16 08:39:00,,0833.6,5.00,0.00,30.5,29.0,00.0,39.4,32.3,15.5,0000.0,0010.97,0004.45,0003.84
2022-10-16 08:40:00,,0833.6,5.00,0.00,30.5,29.0,00.0,39.4,32.3,15.6,0000.0,0010.81,0004.42,0003.84
2022-10-16 08:41:00,,0833.5,5.00,0.00,30.5,29.0,00.0,39.4,32.3,15.6,0000.0,0010.74,0004.41,0003.84
2022-10-16 08:42:00,,0833.5,5.00,0.00,30.5,29.0,00.0,39.4,32.3,15.6,0000.0,0009.70,0004.43,0003.84
2022-10-16 08:43:00,,0833.6,5.00,0.00,30.5,29.0,00.0,39.4,32.3,15.7,0000.0,0009.57,0004.44,0003.86
2022-10-16 08:44:00,,0833.6,5.00,0.00,30.5,29.0,00.0,39.3,32.3,15.8,0000.0,0009.48,0004.42,0003.85
2022-10-16 08:45:00,,0833.6,5.01,0.00,30.5,29.0,00.0,39.3,32.3,15.7,0000.0,0009.30,0004.36,0003.85
2022-10-16 08:46:00,,0833.6,4.98,0.00,30.5,29.0,00.0,39.3,32.2,15.7,0000.0,0009.10,0004.32,0003.85
2022-10-16 08:47:00,,0833.5,5.00,0.00,30.5,29.0,00.0,39.3,32.2,15.7,0000.0,0009.17,0004.31,0003.85
2022-10-16 08:48:00,,0833.6,5.01,0.00,30.5,29.0,00.0,39.3,32.3,15.6,0000.0,0008.95,0004.33,0003.85
2022-10-16 08:49:00,,0833.5,5.01,0.00,30.5,29.0,00.0,39.3,32.3,15.6,0000.0,0008.38,0004.30,0003.84
2022-10-16 08:50:00,,0833.5,4.99,0.00,30.5,29.0,00.0,39.3,32.2,15.6,0000.0,0007.94,0004.29,0003.83
2022-10-16 08:51:00,,0833.5,5.00,0.00,30.5,29.0,00.0,39.3,32.2,15.6,0000.0,0007.92,0004.30,0003.84
2022-10-16 08:52:00,,0833.6,4.99,0.00,30.5,29.0,00.0,39.3,32.2,15.5,0000.0,0008.36,0004.33,0003.84
2022-10-16 08:53:00,,0833.6,5.01,0.00,30.5,29.0,00.0,39.3,32.3,15.5,0000.0,0008.39,0004.28,0003.83
2022-10-16 08:54:00,,0833.6,5.00,0.00,30.5,29.0,00.0,39.3,32.3,15.4,0000.0,0008.07,0004.26,0003.82
2022-10-16 08:55:00,,0833.6,5.00,0.00,30.5,29.0,00.0,39.3,32.3,15.5,0000.0,0008.00,0004.26,0003.80
2022-10-16 08:56:00,,0833.6,5.01,0.00,30.5,29.0,00.0,39.3,32.3,15.5,0000.0,0008.09,0004.28,0003.79
2022-10-16 08:57:00,,0833.5,4.99,0.00,30.5,29.0,00.0,39.3,32.3,15.5,0000.0,0008.17,0004.31,0003.79
2022-10-16 08:58:00,,0833.5,5.01,0.00,30.5,29.0,00.0,39.3,32.3,15.5,0000.0,0007.97,0004.31,0003.79
2022-10-16 08:59:00,,0833.5,4.98,0.00,30.5,29.0,00.0,39.3,32.2,15.4,0000.0,0008.00,0004.33,0003.80
